GFSMW_prec_precacc12_096.txt.gz
Total_Precipitation_Accumulation
0.00 0.00 0.00 0.00 0.00 0.00 0.00 0.00 0.01 0.04 0.07 0.06 0.06 0.07 0.01 0.02 0.04 0.03 0.05 0.01 0.01 0.03 0.04 0.03 0.04 0.04 0.06 0.09 0.07 0.15 0.25 0.39 0.55 0.53 0.46 0.33 0.17 0.11 0.14 0.11 0.04 0.02 0.00
0.00 0.00 0.00 0.00 0.00 0.00 0.00 0.00 0.00 0.02 0.01 0.02 0.05 0.06 0.11 0.11 0.15 0.15 0.17 0.09 0.01 0.02 0.03 0.03 0.05 0.07 0.06 0.03 0.05 0.13 0.26 0.36 0.40 0.40 0.33 0.38 0.39 0.35 0.19 0.10 0.07 0.01 0.00
0.00 0.00 0.00 0.00 0.00 0.00 0.00 0.00 0.01 0.02 0.01 0.01 0.03 0.06 0.14 0.16 0.28 0.29 0.24 0.15 0.05 0.01 0.01 0.02 0.04 0.05 0.08 0.10 0.07 0.09 0.14 0.26 0.31 0.15 0.23 0.19 0.20 0.16 0.25 0.19 0.08 0.02 0.00
0.00 0.00 0.00 0.00 0.00 0.00 0.00 0.00 0.01 0.01 0.01 0.02 0.02 0.02 0.01 0.00 0.00 0.04 0.16 0.18 0.11 0.04 0.02 0.02 0.03 0.03 0.04 0.13 0.17 0.15 0.19 0.22 0.28 0.16 0.17 0.07 0.05 0.07 0.16 0.22 0.19 0.05 0.01
0.00 0.00 0.00 0.00 0.00 0.00 0.00 0.00 0.05 0.04 0.01 0.03 0.02 0.03 0.02 0.03 0.06 0.04 0.03 0.06 0.02 0.03 0.03 0.02 0.02 0.03 0.03 0.06 0.16 0.23 0.23 0.17 0.21 0.11 0.12 0.12 0.09 0.15 0.17 0.24 0.20 0.10 0.03
0.01 0.00 0.00 0.00 0.00 0.08 0.04 0.00 0.02 0.02 0.05 0.03 0.04 0.04 0.02 0.05 0.04 0.02 0.02 0.01 0.01 0.02 0.02 0.01 0.01 0.02 0.04 0.06 0.11 0.23 0.24 0.22 0.22 0.21 0.08 0.07 0.11 0.13 0.18 0.21 0.18 0.14 0.09
0.02 0.01 0.01 0.01 0.00 0.05 0.19 0.13 0.13 0.05 0.02 0.02 0.04 0.05 0.07 0.05 0.05 0.02 0.01 0.00 0.01 0.01 0.01 0.01 0.01 0.02 0.06 0.12 0.16 0.21 0.34 0.28 0.25 0.26 0.15 0.08 0.07 0.12 0.22 0.27 0.26 0.16 0.06
0.04 0.02 0.03 0.03 0.01 0.02 0.10 0.24 0.35 0.27 0.19 0.16 0.15 0.16 0.15 0.14 0.13 0.09 0.04 0.01 0.00 0.00 0.00 0.01 0.01 0.03 0.12 0.23 0.24 0.30 0.31 0.42 0.34 0.28 0.26 0.14 0.14 0.15 0.14 0.15 0.20 0.15 0.07
0.09 0.05 0.06 0.06 0.05 0.07 0.26 0.28 0.25 0.19 0.24 0.33 0.24 0.22 0.18 0.18 0.17 0.17 0.14 0.04 0.00 0.00 0.00 0.00 0.01 0.04 0.14 0.24 0.45 0.42 0.41 0.43 0.46 0.35 0.31 0.21 0.16 0.18 0.19 0.12 0.07 0.07 0.09
0.02 0.02 0.04 0.12 0.18 0.50 0.78 0.91 0.83 0.60 0.47 0.42 0.36 0.32 0.26 0.19 0.18 0.14 0.08 0.03 0.00 0.00 0.00 0.00 0.01 0.01 0.07 0.18 0.43 0.46 0.44 0.53 0.55 0.55 0.50 0.33 0.21 0.17 0.15 0.12 0.05 0.04 0.04
0.01 0.00 0.03 0.11 0.26 0.41 0.58 0.77 1.04 1.13 0.86 0.64 0.58 0.48 0.28 0.24 0.19 0.17 0.12 0.07 0.02 0.00 0.00 0.00 0.00 0.01 0.04 0.13 0.36 0.60 0.43 0.54 0.64 0.61 0.57 0.42 0.28 0.28 0.21 0.13 0.08 0.06 0.04
0.00 0.00 0.01 0.04 0.17 0.33 0.51 0.68 0.97 1.41 1.03 0.64 0.56 0.48 0.29 0.29 0.17 0.13 0.09 0.04 0.01 0.01 0.00 0.00 0.00 0.00 0.01 0.09 0.29 0.58 0.62 0.53 0.55 0.65 0.62 0.59 0.39 0.31 0.29 0.17 0.13 0.10 0.09
0.00 0.00 0.00 0.01 0.04 0.13 0.25 0.32 0.59 0.91 0.87 0.92 0.67 0.58 0.44 0.27 0.12 0.07 0.03 0.02 0.02 0.02 0.01 0.01 0.00 0.00 0.00 0.05 0.26 0.41 0.62 0.68 0.62 0.60 0.68 0.58 0.47 0.43 0.31 0.20 0.18 0.14 0.13
0.00 0.01 0.01 0.00 0.01 0.04 0.09 0.14 0.49 0.53 0.34 0.78 0.92 0.72 0.61 0.39 0.13 0.04 0.02 0.01 0.01 0.01 0.01 0.01 0.05 0.04 0.00 0.06 0.16 0.24 0.42 0.62 0.73 0.68 0.62 0.68 0.58 0.45 0.31 0.23 0.19 0.18 0.17
0.00 0.00 0.01 0.01 0.01 0.02 0.02 0.06 0.14 0.49 0.48 0.56 1.08 1.20 0.81 0.57 0.42 0.10 0.02 0.02 0.01 0.01 0.01 0.01 0.02 0.05 0.02 0.03 0.08 0.19 0.25 0.47 0.66 0.70 0.71 0.54 0.57 0.52 0.42 0.33 0.22 0.15 0.14
0.00 0.00 0.00 0.01 0.02 0.03 0.03 0.04 0.07 0.14 0.33 0.37 0.75 1.14 1.59 0.78 0.60 0.43 0.05 0.03 0.03 0.02 0.02 0.02 0.02 0.05 0.03 0.07 0.06 0.10 0.13 0.15 0.25 0.34 0.42 0.56 0.52 0.46 0.48 0.42 0.37 0.29 0.22
0.01 0.01 0.01 0.02 0.04 0.06 0.06 0.06 0.07 0.12 0.25 0.36 0.66 0.78 0.86 1.26 0.80 0.55 0.11 0.05 0.03 0.03 0.03 0.04 0.04 0.05 0.04 0.08 0.09 0.10 0.07 0.12 0.08 0.14 0.25 0.33 0.54 0.47 0.30 0.31 0.29 0.27 0.26
0.02 0.03 0.06 0.06 0.07 0.09 0.13 0.11 0.11 0.13 0.21 0.35 0.45 0.58 0.45 0.79 0.93 0.46 0.14 0.09 0.05 0.04 0.04 0.04 0.04 0.04 0.06 0.09 0.12 0.13 0.04 0.11 0.13 0.09 0.07 0.13 0.19 0.31 0.31 0.26 0.27 0.22 0.17
0.04 0.04 0.06 0.06 0.11 0.15 0.17 0.17 0.16 0.18 0.19 0.32 0.51 0.66 0.74 0.74 0.65 0.58 0.32 0.18 0.11 0.06 0.06 0.06 0.05 0.04 0.05 0.08 0.10 0.10 0.02 0.02 0.06 0.08 0.10 0.09 0.07 0.18 0.19 0.11 0.14 0.15 0.12
0.06 0.05 0.05 0.06 0.09 0.24 0.27 0.23 0.21 0.22 0.26 0.35 0.38 0.50 0.68 0.85 0.88 0.78 0.61 0.38 0.28 0.20 0.14 0.18 0.17 0.19 0.10 0.17 0.17 0.15 0.06 0.08 0.05 0.05 0.10 0.16 0.11 0.14 0.08 0.03 0.03 0.06 0.10
0.05 0.03 0.03 0.05 0.08 0.12 0.23 0.32 0.38 0.38 0.43 0.42 0.47 0.50 0.55 0.70 0.79 0.72 0.68 0.60 0.49 0.37 0.28 0.25 0.25 0.22 0.23 0.26 0.25 0.25 0.17 0.19 0.17 0.14 0.13 0.17 0.17 0.11 0.09 0.07 0.05 0.07 0.04
0.04 0.04 0.03 0.05 0.08 0.07 0.10 0.21 0.33 0.45 0.48 0.48 0.44 0.53 0.57 0.62 0.74 0.90 0.86 0.69 0.61 0.53 0.45 0.37 0.34 0.35 0.42 0.43 0.38 0.29 0.23 0.21 0.15 0.18 0.16 0.16 0.15 0.11 0.08 0.05 0.05 0.04 0.02
0.04 0.03 0.04 0.04 0.03 0.05 0.06 0.11 0.21 0.30 0.32 0.35 0.41 0.42 0.45 0.50 0.50 0.53 0.66 0.78 0.79 0.69 0.57 0.45 0.40 0.40 0.40 0.43 0.42 0.40 0.37 0.31 0.22 0.21 0.20 0.18 0.12 0.05 0.03 0.02 0.01 0.00 0.00
0.07 0.05 0.02 0.01 0.03 0.05 0.06 0.04 0.02 0.03 0.07 0.11 0.15 0.20 0.24 0.26 0.26 0.27 0.31 0.33 0.41 0.49 0.55 0.54 0.49 0.45 0.39 0.36 0.34 0.29 0.25 0.22 0.20 0.19 0.14 0.10 0.06 0.04 0.02 0.01 0.00 0.00 0.00
0.07 0.06 0.05 0.05 0.08 0.04 0.03 0.05 0.05 0.01 0.01 0.03 0.05 0.07 0.10 0.12 0.14 0.15 0.16 0.16 0.20 0.19 0.22 0.28 0.31 0.34 0.38 0.41 0.36 0.31 0.27 0.24 0.22 0.20 0.20 0.18 0.16 0.14 0.11 0.08 0.06 0.04 0.02
0.06 0.06 0.07 0.08 0.07 0.03 0.04 0.04 0.03 0.02 0.01 0.01 0.01 0.01 0.01 0.02 0.03 0.03 0.05 0.05 0.06 0.05 0.05 0.06 0.07 0.10 0.12 0.12 0.11 0.10 0.09 0.08 0.07 0.06 0.08 0.08 0.07 0.07 0.06 0.05 0.04 0.03 0.03

GFSMW_prec_precacc12_099.txt.gz
Total_Precipitation_Accumulation
0.00 0.00 0.00 0.00 0.00 0.00 0.00 0.00 0.01 0.02 0.05 0.06 0.07 0.07 0.01 0.02 0.05 0.03 0.09 0.02 0.00 0.01 0.00 0.01 0.01 0.02 0.04 0.09 0.06 0.05 0.03 0.04 0.24 0.44 0.45 0.34 0.19 0.19 0.33 0.31 0.15 0.11 0.09
0.00 0.00 0.00 0.00 0.00 0.00 0.00 0.00 0.00 0.00 0.01 0.02 0.05 0.06 0.11 0.12 0.22 0.19 0.20 0.13 0.02 0.00 0.01 0.02 0.02 0.04 0.06 0.03 0.05 0.05 0.04 0.10 0.24 0.36 0.34 0.39 0.43 0.40 0.31 0.26 0.19 0.07 0.05
0.00 0.00 0.00 0.00 0.00 0.00 0.00 0.00 0.00 0.00 0.01 0.01 0.03 0.07 0.16 0.20 0.34 0.30 0.24 0.22 0.19 0.12 0.07 0.04 0.03 0.04 0.07 0.07 0.05 0.07 0.07 0.11 0.19 0.15 0.24 0.20 0.20 0.19 0.28 0.27 0.17 0.16 0.08
0.00 0.00 0.00 0.00 0.00 0.00 0.00 0.00 0.00 0.00 0.01 0.02 0.02 0.02 0.01 0.00 0.00 0.04 0.17 0.25 0.48 0.57 0.46 0.21 0.11 0.05 0.03 0.06 0.07 0.09 0.13 0.17 0.16 0.18 0.19 0.07 0.06 0.08 0.17 0.24 0.26 0.16 0.10
0.00 0.00 0.00 0.00 0.00 0.00 0.00 0.00 0.00 0.00 0.01 0.03 0.02 0.03 0.02 0.03 0.06 0.04 0.04 0.07 0.20 0.23 0.44 0.43 0.20 0.08 0.03 0.03 0.06 0.11 0.14 0.14 0.15 0.12 0.14 0.14 0.09 0.15 0.17 0.25 0.24 0.22 0.12
0.01 0.00 0.00 0.00 0.00 0.08 0.04 0.00 0.00 0.01 0.05 0.04 0.04 0.04 0.03 0.05 0.04 0.02 0.02 0.01 0.02 0.04 0.05 0.05 0.05 0.06 0.04 0.04 0.03 0.11 0.17 0.17 0.17 0.21 0.14 0.11 0.12 0.13 0.19 0.22 0.20 0.22 0.20
0.02 0.01 0.01 0.01 0.00 0.03 0.17 0.13 0.12 0.03 0.03 0.03 0.05 0.06 0.07 0.05 0.05 0.03 0.02 0.03 0.01 0.03 0.02 0.03 0.03 0.03 0.03 0.05 0.06 0.07 0.22 0.23 0.22 0.25 0.18 0.13 0.11 0.13 0.21 0.27 0.28 0.26 0.20
0.03 0.02 0.03 0.03 0.02 0.01 0.09 0.22 0.30 0.24 0.19 0.18 0.20 0.20 0.18 0.16 0.14 0.12 0.13 0.06 0.02 0.03 0.05 0.02 0.04 0.03 0.03 0.08 0.16 0.20 0.21 0.34 0.30 0.28 0.25 0.15 0.15 0.15 0.13 0.15 0.23 0.26 0.20
0.08 0.04 0.05 0.08 0.06 0.04 0.20 0.25 0.21 0.14 0.24 0.36 0.30 0.27 0.24 0.25 0.24 0.25 0.29 0.25 0.14 0.11 0.12 0.03 0.03 0.03 0.05 0.11 0.34 0.33 0.31 0.35 0.41 0.32 0.29 0.19 0.14 0.15 0.19 0.13 0.10 0.12 0.19
0.02 0.02 0.03 0.10 0.11 0.12 0.22 0.44 0.58 0.51 0.47 0.49 0.45 0.41 0.31 0.23 0.21 0.22 0.28 0.26 0.23 0.16 0.10 0.04 0.02 0.02 0.03 0.09 0.27 0.35 0.35 0.45 0.49 0.51 0.46 0.31 0.20 0.17 0.16 0.15 0.09 0.08 0.08
0.01 0.00 0.01 0.05 0.13 0.19 0.34 0.50 0.77 1.03 0.94 0.75 0.70 0.58 0.38 0.28 0.21 0.20 0.14 0.22 0.16 0.16 0.04 0.02 0.01 0.01 0.02 0.07 0.19 0.37 0.34 0.46 0.58 0.58 0.55 0.43 0.31 0.31 0.24 0.18 0.15 0.12 0.08
0.00 0.00 0.00 0.02 0.10 0.21 0.34 0.49 0.79 1.35 1.13 0.70 0.59 0.41 0.36 0.40 0.20 0.15 0.11 0.07 0.06 0.04 0.01 0.01 0.01 0.01 0.01 0.06 0.19 0.39 0.52 0.47 0.49 0.57 0.62 0.65 0.46 0.34 0.31 0.27 0.23 0.15 0.12
0.00 0.00 0.00 0.00 0.02 0.11 0.24 0.31 0.56 0.87 0.90 0.96 0.68 0.55 0.40 0.33 0.20 0.11 0.09 0.06 0.03 0.02 0.02 0.01 0.00 0.00 0.00 0.03 0.18 0.30 0.55 0.58 0.56 0.52 0.62 0.60 0.56 0.47 0.33 0.26 0.27 0.23 0.18
0.00 0.00 0.00 0.00 0.00 0.02 0.09 0.15 0.47 0.51 0.34 0.78 0.89 0.70 0.62 0.51 0.26 0.16 0.09 0.05 0.03 0.01 0.01 0.01 0.01 0.01 0.00 0.04 0.10 0.18 0.34 0.49 0.60 0.64 0.66 0.72 0.62 0.50 0.39 0.32 0.29 0.29 0.25
0.00 0.00 0.00 0.00 0.00 0.00 0.01 0.03 0.13 0.55 0.58 0.61 1.06 1.13 0.80 0.63 0.63 0.50 0.27 0.06 0.02 0.01 0.01 0.01 0.01 0.01 0.00 0.02 0.06 0.14 0.21 0.42 0.53 0.57 0.65 0.57 0.64 0.63 0.53 0.43 0.37 0.30 0.24
0.01 0.00 0.00 0.00 0.00 0.01 0.01 0.03 0.04 0.09 0.34 0.49 0.78 1.13 1.62 0.94 0.89 0.98 0.93 0.39 0.05 0.03 0.01 0.01 0.02 0.03 0.02 0.05 0.04 0.08 0.12 0.15 0.23 0.31 0.42 0.63 0.67 0.69 0.71 0.66 0.57 0.49 0.34
0.01 0.01 0.01 0.01 0.02 0.03 0.05 0.06 0.08 0.09 0.17 0.33 0.69 0.80 0.95 1.37 0.96 1.03 1.02 0.97 0.24 0.04 0.04 0.03 0.03 0.03 0.03 0.06 0.07 0.09 0.07 0.11 0.08 0.13 0.25 0.37 0.70 0.75 0.58 0.63 0.63 0.59 0.49
0.02 0.01 0.01 0.02 0.03 0.05 0.07 0.07 0.11 0.10 0.16 0.28 0.43 0.62 0.49 0.91 1.21 0.87 0.80 0.72 0.31 0.08 0.06 0.05 0.04 0.03 0.04 0.07 0.10 0.12 0.04 0.10 0.14 0.10 0.10 0.15 0.29 0.61 0.66 0.56 0.57 0.51 0.43
0.04 0.03 0.03 0.03 0.04 0.07 0.09 0.09 0.09 0.12 0.13 0.24 0.43 0.61 0.72 0.78 0.87 1.09 0.86 0.70 0.39 0.10 0.05 0.04 0.04 0.03 0.04 0.07 0.10 0.10 0.02 0.03 0.06 0.12 0.13 0.11 0.07 0.19 0.31 0.26 0.27 0.30 0.31
0.03 0.03 0.03 0.03 0.03 0.07 0.09 0.10 0.12 0.11 0.14 0.18 0.27 0.41 0.57 0.80 1.01 1.10 1.07 0.88 0.65 0.30 0.15 0.10 0.07 0.10 0.05 0.11 0.13 0.13 0.06 0.09 0.06 0.06 0.13 0.19 0.14 0.18 0.15 0.11 0.12 0.17 0.21
0.04 0.02 0.02 0.03 0.05 0.03 0.04 0.10 0.18 0.20 0.25 0.22 0.18 0.22 0.33 0.52 0.68 0.82 0.90 0.98 0.92 0.68 0.42 0.32 0.26 0.21 0.24 0.26 0.25 0.25 0.17 0.19 0.18 0.15 0.15 0.19 0.20 0.14 0.14 0.11 0.08 0.11 0.09
0.03 0.02 0.02 0.04 0.04 0.02 0.02 0.04 0.10 0.19 0.22 0.22 0.20 0.20 0.21 0.28 0.41 0.56 0.63 0.66 0.73 0.82 0.75 0.55 0.50 0.45 0.48 0.49 0.44 0.33 0.26 0.24 0.17 0.20 0.18 0.22 0.21 0.16 0.13 0.09 0.12 0.09 0.04
0.03 0.02 0.02 0.03 0.03 0.03 0.03 0.05 0.10 0.08 0.10 0.13 0.15 0.17 0.16 0.19 0.24 0.30 0.37 0.46 0.52 0.54 0.57 0.53 0.47 0.48 0.49 0.53 0.51 0.49 0.45 0.38 0.26 0.26 0.29 0.28 0.18 0.11 0.10 0.09 0.05 0.01 0.00
0.03 0.02 0.01 0.01 0.03 0.05 0.06 0.04 0.02 0.02 0.03 0.05 0.08 0.12 0.13 0.14 0.15 0.15 0.19 0.23 0.31 0.38 0.46 0.49 0.47 0.45 0.39 0.38 0.37 0.32 0.29 0.27 0.26 0.27 0.23 0.18 0.13 0.10 0.08 0.06 0.03 0.02 0.01
0.03 0.02 0.02 0.03 0.04 0.04 0.03 0.05 0.05 0.01 0.01 0.03 0.05 0.07 0.09 0.12 0.13 0.14 0.16 0.16 0.20 0.19 0.22 0.28 0.31 0.34 0.38 0.43 0.37 0.32 0.28 0.27 0.26 0.25 0.25 0.25 0.23 0.21 0.19 0.15 0.13 0.10 0.07
0.03 0.02 0.03 0.04 0.04 0.03 0.03 0.04 0.03 0.02 0.01 0.01 0.01 0.01 0.01 0.02 0.03 0.03 0.05 0.06 0.08 0.06 0.05 0.06 0.07 0.10 0.13 0.12 0.11 0.11 0.10 0.09 0.08 0.07 0.09 0.11 0.11 0.10 0.09 0.08 0.08 0.07 0.06

GFSMW_prec_precacc12_102.txt.gz
Total_Precipitation_Accumulation
0.00 0.00 0.00 0.00 0.00 0.00 0.00 0.00 0.00 0.00 0.00 0.03 0.03 0.04 0.01 0.02 0.04 0.04 0.09 0.02 0.00 0.00 0.00 0.00 0.00 0.01 0.01 0.02 0.02 0.03 0.03 0.03 0.05 0.08 0.14 0.28 0.20 0.20 0.35 0.49 0.46 0.66 0.47
0.00 0.00 0.00 0.00 0.00 0.00 0.00 0.00 0.00 0.00 0.00 0.00 0.02 0.06 0.09 0.11 0.22 0.20 0.20 0.13 0.02 0.01 0.00 0.01 0.01 0.01 0.02 0.01 0.04 0.05 0.03 0.03 0.03 0.03 0.15 0.31 0.41 0.41 0.32 0.31 0.35 0.34 0.27
0.00 0.00 0.00 0.00 0.00 0.00 0.00 0.00 0.00 0.00 0.00 0.00 0.01 0.05 0.15 0.20 0.36 0.31 0.25 0.23 0.21 0.16 0.09 0.03 0.03 0.01 0.01 0.03 0.04 0.07 0.07 0.04 0.05 0.02 0.12 0.17 0.19 0.19 0.30 0.31 0.26 0.30 0.21
0.00 0.00 0.00 0.00 0.00 0.00 0.00 0.00 0.00 0.00 0.00 0.00 0.01 0.02 0.01 0.00 0.01 0.04 0.17 0.26 0.50 0.61 0.50 0.28 0.22 0.14 0.05 0.05 0.07 0.09 0.14 0.14 0.08 0.08 0.13 0.06 0.05 0.08 0.19 0.27 0.30 0.21 0.17
0.00 0.00 0.00 0.00 0.00 0.00 0.00 0.00 0.00 0.00 0.00 0.00 0.01 0.03 0.03 0.04 0.06 0.04 0.05 0.08 0.21 0.24 0.45 0.47 0.38 0.23 0.11 0.08 0.11 0.08 0.09 0.11 0.11 0.07 0.12 0.13 0.09 0.16 0.18 0.25 0.26 0.25 0.15
0.01 0.00 0.00 0.00 0.00 0.00 0.00 0.00 0.00 0.00 0.00 0.01 0.03 0.04 0.03 0.05 0.05 0.02 0.03 0.03 0.03 0.06 0.06 0.08 0.12 0.11 0.07 0.07 0.09 0.07 0.07 0.08 0.11 0.15 0.12 0.12 0.12 0.14 0.19 0.22 0.21 0.24 0.22
0.01 0.00 0.01 0.01 0.00 0.00 0.01 0.02 0.03 0.01 0.01 0.01 0.03 0.06 0.08 0.06 0.06 0.04 0.03 0.05 0.03 0.03 0.02 0.02 0.04 0.04 0.03 0.04 0.05 0.05 0.07 0.08 0.13 0.17 0.14 0.13 0.12 0.16 0.23 0.30 0.30 0.27 0.20
0.02 0.00 0.02 0.03 0.02 0.01 0.04 0.10 0.09 0.14 0.14 0.16 0.18 0.19 0.19 0.18 0.16 0.14 0.14 0.07 0.02 0.03 0.05 0.02 0.04 0.06 0.09 0.11 0.08 0.06 0.07 0.11 0.18 0.17 0.16 0.11 0.15 0.20 0.18 0.18 0.25 0.28 0.21
0.05 0.03 0.05 0.07 0.05 0.04 0.07 0.15 0.14 0.10 0.18 0.32 0.29 0.29 0.28 0.30 0.31 0.27 0.33 0.29 0.15 0.11 0.12 0.04 0.10 0.19 0.17 0.15 0.15 0.12 0.12 0.15 0.22 0.21 0.22 0.16 0.13 0.16 0.20 0.17 0.12 0.14 0.19
0.02 0.02 0.02 0.06 0.07 0.09 0.14 0.25 0.25 0.27 0.29 0.39 0.46 0.44 0.35 0.26 0.24 0.24 0.32 0.33 0.30 0.19 0.17 0.12 0.14 0.17 0.21 0.22 0.17 0.14 0.21 0.31 0.31 0.37 0.36 0.27 0.18 0.15 0.15 0.16 0.11 0.11 0.10
0.01 0.00 0.00 0.02 0.05 0.08 0.15 0.18 0.34 0.62 0.60 0.55 0.69 0.63 0.43 0.32 0.24 0.24 0.19 0.26 0.19 0.21 0.12 0.11 0.11 0.16 0.17 0.14 0.12 0.16 0.18 0.32 0.43 0.45 0.45 0.33 0.24 0.28 0.23 0.19 0.16 0.12 0.10
0.00 0.00 0.00 0.00 0.06 0.12 0.12 0.14 0.22 0.51 0.62 0.52 0.64 0.57 0.49 0.49 0.33 0.24 0.21 0.16 0.12 0.09 0.06 0.06 0.09 0.08 0.06 0.03 0.07 0.20 0.31 0.33 0.32 0.42 0.53 0.56 0.36 0.28 0.29 0.27 0.26 0.19 0.15
0.00 0.00 0.00 0.00 0.01 0.08 0.16 0.18 0.25 0.51 0.50 0.63 0.68 0.61 0.44 0.45 0.40 0.34 0.24 0.19 0.05 0.02 0.01 0.02 0.02 0.04 0.04 0.02 0.03 0.12 0.30 0.44 0.43 0.36 0.50 0.50 0.48 0.40 0.33 0.30 0.30 0.27 0.21
0.00 0.00 0.00 0.00 0.00 0.02 0.09 0.17 0.52 0.58 0.44 0.56 0.76 0.81 0.76 0.66 0.41 0.32 0.22 0.13 0.07 0.01 0.01 0.01 0.01 0.01 0.01 0.02 0.06 0.08 0.18 0.32 0.45 0.53 0.50 0.53 0.51 0.45 0.39 0.34 0.32 0.31 0.29
0.00 0.00 0.00 0.00 0.00 0.00 0.01 0.03 0.11 0.47 0.61 0.75 1.02 1.10 0.92 0.78 0.77 0.60 0.39 0.17 0.05 0.02 0.01 0.01 0.00 0.01 0.00 0.01 0.05 0.12 0.16 0.24 0.29 0.38 0.50 0.48 0.55 0.57 0.56 0.46 0.39 0.34 0.31
0.01 0.00 0.00 0.00 0.00 0.01 0.01 0.02 0.03 0.06 0.27 0.46 0.80 1.18 1.64 0.93 0.91 1.06 1.02 0.63 0.18 0.08 0.03 0.01 0.01 0.01 0.01 0.03 0.03 0.06 0.08 0.11 0.18 0.25 0.38 0.60 0.66 0.70 0.77 0.78 0.70 0.60 0.47
0.02 0.01 0.01 0.01 0.01 0.02 0.03 0.05 0.08 0.06 0.09 0.22 0.71 0.89 1.06 1.42 1.05 1.17 1.28 1.40 0.97 0.48 0.19 0.04 0.02 0.02 0.02 0.04 0.06 0.08 0.05 0.08 0.06 0.12 0.24 0.36 0.72 0.81 0.66 0.74 0.74 0.75 0.70
0.04 0.02 0.01 0.01 0.02 0.01 0.03 0.04 0.08 0.07 0.09 0.20 0.33 0.59 0.53 0.93 1.24 0.90 0.88 0.93 0.95 0.80 0.45 0.13 0.04 0.02 0.03 0.05 0.07 0.10 0.04 0.10 0.13 0.09 0.09 0.15 0.28 0.62 0.70 0.65 0.71 0.73 0.68
0.06 0.04 0.04 0.03 0.02 0.01 0.02 0.05 0.05 0.09 0.08 0.16 0.35 0.47 0.57 0.67 0.84 1.12 0.97 0.94 0.78 0.63 0.41 0.16 0.05 0.02 0.03 0.05 0.07 0.08 0.01 0.02 0.05 0.11 0.13 0.11 0.06 0.16 0.33 0.35 0.42 0.49 0.56
0.05 0.05 0.04 0.03 0.02 0.01 0.01 0.02 0.04 0.05 0.09 0.14 0.18 0.26 0.38 0.56 0.82 1.07 1.22 1.16 1.04 0.81 0.58 0.27 0.07 0.06 0.02 0.06 0.09 0.10 0.04 0.06 0.04 0.04 0.11 0.19 0.16 0.19 0.15 0.14 0.19 0.23 0.29
0.06 0.04 0.02 0.03 0.04 0.01 0.00 0.01 0.04 0.08 0.13 0.14 0.10 0.08 0.13 0.25 0.44 0.70 0.96 1.17 1.29 1.15 0.81 0.59 0.35 0.21 0.18 0.12 0.13 0.15 0.10 0.13 0.11 0.10 0.11 0.17 0.20 0.14 0.15 0.14 0.13 0.20 0.18
0.04 0.02 0.02 0.02 0.02 0.01 0.00 0.00 0.04 0.08 0.07 0.09 0.10 0.09 0.06 0.08 0.14 0.22 0.37 0.54 0.75 1.02 1.13 0.89 0.73 0.61 0.57 0.52 0.42 0.33 0.29 0.25 0.16 0.21 0.18 0.24 0.22 0.18 0.15 0.12 0.18 0.15 0.07
0.02 0.02 0.01 0.01 0.01 0.01 0.01 0.01 0.04 0.02 0.02 0.04 0.06 0.08 0.08 0.07 0.06 0.06 0.09 0.14 0.22 0.31 0.45 0.60 0.66 0.67 0.67 0.69 0.65 0.59 0.52 0.44 0.32 0.33 0.35 0.32 0.19 0.12 0.12 0.13 0.08 0.03 0.01
0.02 0.01 0.00 0.00 0.02 0.02 0.02 0.02 0.01 0.01 0.01 0.02 0.04 0.05 0.05 0.05 0.05 0.05 0.06 0.07 0.10 0.14 0.20 0.23 0.27 0.34 0.36 0.38 0.40 0.38 0.36 0.36 0.34 0.35 0.30 0.23 0.16 0.12 0.12 0.10 0.09 0.08 0.06
0.01 0.01 0.01 0.01 0.02 0.02 0.01 0.03 0.02 0.00 0.01 0.02 0.03 0.04 0.04 0.05 0.06 0.07 0.09 0.08 0.12 0.10 0.13 0.18 0.20 0.22 0.26 0.34 0.31 0.29 0.28 0.29 0.30 0.30 0.31 0.29 0.27 0.25 0.23 0.19 0.18 0.15 0.12
0.01 0.01 0.01 0.01 0.01 0.01 0.01 0.01 0.02 0.01 0.01 0.00 0.01 0.01 0.01 0.02 0.03 0.03 0.05 0.06 0.08 0.06 0.05 0.06 0.07 0.11 0.13 0.12 0.11 0.11 0.10 0.10 0.10 0.09 0.11 0.13 0.13 0.13 0.12 0.11 0.10 0.09 0.08

GFSMW_prec_precacc12_105.txt.gz
Total_Precipitation_Accumulation
0.00 0.00 0.00 0.00 0.00 0.00 0.00 0.00 0.00 0.00 0.00 0.01 0.01 0.02 0.01 0.01 0.02 0.03 0.09 0.02 0.00 0.01 0.01 0.00 0.00 0.01 0.01 0.01 0.01 0.01 0.01 0.01 0.01 0.03 0.04 0.05 0.09 0.17 0.33 0.49 0.46 0.68 0.66
0.00 0.00 0.00 0.00 0.00 0.00 0.00 0.00 0.00 0.00 0.00 0.00 0.00 0.00 0.00 0.01 0.14 0.18 0.20 0.13 0.03 0.01 0.01 0.01 0.01 0.01 0.02 0.01 0.02 0.02 0.02 0.03 0.02 0.02 0.02 0.04 0.11 0.22 0.29 0.31 0.36 0.40 0.51
0.00 0.00 0.00 0.00 0.00 0.00 0.00 0.00 0.00 0.00 0.00 0.00 0.00 0.01 0.06 0.14 0.24 0.29 0.25 0.23 0.23 0.17 0.09 0.03 0.02 0.01 0.02 0.02 0.03 0.04 0.05 0.03 0.04 0.02 0.02 0.01 0.04 0.10 0.26 0.31 0.27 0.32 0.33
0.00 0.00 0.00 0.00 0.00 0.00 0.00 0.00 0.00 0.00 0.00 0.00 0.00 0.00 0.00 0.00 0.01 0.04 0.17 0.26 0.52 0.64 0.50 0.27 0.20 0.13 0.06 0.05 0.03 0.05 0.09 0.12 0.08 0.07 0.04 0.03 0.04 0.04 0.09 0.21 0.29 0.22 0.21
0.00 0.00 0.00 0.00 0.00 0.00 0.00 0.00 0.00 0.00 0.00 0.00 0.00 0.00 0.00 0.00 0.00 0.01 0.05 0.09 0.22 0.25 0.45 0.48 0.37 0.32 0.20 0.14 0.12 0.07 0.08 0.09 0.10 0.07 0.05 0.04 0.04 0.07 0.07 0.13 0.23 0.26 0.16
0.00 0.00 0.00 0.00 0.00 0.00 0.00 0.00 0.00 0.00 0.00 0.00 0.00 0.01 0.01 0.00 0.01 0.00 0.03 0.06 0.06 0.08 0.08 0.19 0.14 0.16 0.28 0.27 0.29 0.25 0.13 0.07 0.08 0.10 0.10 0.07 0.05 0.05 0.13 0.19 0.21 0.24 0.23
0.00 0.00 0.00 0.00 0.00 0.00 0.00 0.00 0.01 0.00 0.00 0.01 0.01 0.01 0.01 0.02 0.02 0.02 0.05 0.10 0.07 0.07 0.03 0.06 0.05 0.04 0.05 0.04 0.05 0.10 0.15 0.09 0.07 0.07 0.09 0.11 0.10 0.13 0.17 0.31 0.34 0.28 0.20
0.00 0.00 0.00 0.00 0.01 0.01 0.01 0.02 0.04 0.03 0.04 0.05 0.05 0.09 0.14 0.16 0.15 0.13 0.19 0.13 0.03 0.04 0.08 0.07 0.09 0.11 0.12 0.10 0.08 0.06 0.07 0.07 0.07 0.06 0.05 0.07 0.11 0.16 0.18 0.19 0.25 0.29 0.23
0.00 0.02 0.03 0.03 0.03 0.03 0.03 0.05 0.06 0.07 0.11 0.16 0.13 0.15 0.22 0.30 0.33 0.29 0.41 0.35 0.19 0.13 0.15 0.08 0.19 0.26 0.23 0.17 0.15 0.07 0.07 0.07 0.07 0.07 0.08 0.10 0.08 0.13 0.20 0.20 0.18 0.18 0.24
0.01 0.02 0.02 0.03 0.03 0.05 0.06 0.13 0.12 0.14 0.19 0.27 0.29 0.28 0.30 0.32 0.41 0.37 0.40 0.37 0.33 0.22 0.20 0.16 0.20 0.21 0.31 0.37 0.20 0.10 0.10 0.12 0.11 0.14 0.15 0.13 0.12 0.12 0.15 0.16 0.12 0.13 0.16
0.00 0.00 0.00 0.00 0.00 0.03 0.07 0.10 0.16 0.26 0.31 0.33 0.47 0.41 0.34 0.34 0.31 0.36 0.32 0.33 0.24 0.27 0.19 0.17 0.15 0.17 0.23 0.37 0.41 0.29 0.23 0.16 0.21 0.24 0.22 0.18 0.17 0.25 0.23 0.19 0.16 0.13 0.12
0.00 0.00 0.00 0.00 0.01 0.04 0.05 0.07 0.13 0.31 0.30 0.24 0.37 0.36 0.42 0.49 0.40 0.34 0.33 0.22 0.17 0.18 0.16 0.06 0.10 0.09 0.12 0.20 0.58 0.58 0.44 0.20 0.13 0.22 0.34 0.38 0.26 0.23 0.26 0.25 0.23 0.17 0.16
0.00 0.00 0.00 0.00 0.00 0.05 0.07 0.09 0.12 0.23 0.27 0.27 0.36 0.37 0.37 0.50 0.49 0.45 0.36 0.31 0.14 0.07 0.09 0.05 0.03 0.05 0.05 0.05 0.07 0.31 0.35 0.25 0.25 0.19 0.26 0.30 0.33 0.29 0.22 0.21 0.23 0.24 0.21
0.00 0.00 0.00 0.00 0.00 0.01 0.05 0.09 0.23 0.31 0.50 0.47 0.36 0.48 0.73 0.74 0.56 0.49 0.46 0.37 0.30 0.08 0.07 0.05 0.03 0.02 0.03 0.05 0.05 0.04 0.07 0.13 0.24 0.29 0.27 0.35 0.35 0.33 0.26 0.22 0.25 0.29 0.31
0.00 0.00 0.00 0.00 0.00 0.00 0.01 0.02 0.09 0.25 0.40 0.62 0.59 0.52 0.78 0.99 1.16 1.23 0.97 0.43 0.38 0.19 0.08 0.05 0.01 0.01 0.00 0.01 0.02 0.05 0.05 0.06 0.15 0.23 0.30 0.35 0.45 0.45 0.47 0.36 0.33 0.33 0.32
0.01 0.00 0.00 0.00 0.00 0.01 0.01 0.02 0.02 0.04 0.15 0.27 0.32 0.49 1.07 0.95 1.03 1.29 1.39 0.88 0.46 0.35 0.10 0.06 0.03 0.01 0.00 0.03 0.03 0.04 0.05 0.08 0.12 0.18 0.30 0.49 0.53 0.55 0.62 0.67 0.66 0.58 0.47
0.02 0.01 0.01 0.01 0.01 0.01 0.02 0.05 0.08 0.05 0.05 0.15 0.47 0.67 0.80 1.35 1.09 1.22 1.39 1.59 1.13 0.75 0.54 0.18 0.05 0.02 0.01 0.03 0.03 0.05 0.02 0.05 0.04 0.06 0.15 0.30 0.62 0.68 0.58 0.72 0.77 0.86 0.90
0.06 0.03 0.02 0.02 0.02 0.01 0.01 0.03 0.05 0.06 0.05 0.09 0.22 0.32 0.36 0.83 1.31 0.96 0.91 0.96 1.14 1.16 0.96 0.45 0.17 0.05 0.02 0.05 0.04 0.07 0.03 0.08 0.09 0.06 0.06 0.13 0.25 0.57 0.65 0.66 0.81 0.86 0.84
0.13 0.07 0.05 0.05 0.04 0.02 0.01 0.01 0.02 0.06 0.06 0.13 0.18 0.30 0.42 0.53 0.77 1.06 0.93 0.94 0.81 0.80 0.87 0.77 0.46 0.24 0.11 0.12 0.10 0.06 0.01 0.02 0.05 0.08 0.11 0.10 0.06 0.15 0.32 0.35 0.43 0.57 0.73
0.10 0.08 0.08 0.07 0.05 0.02 0.01 0.00 0.01 0.02 0.04 0.11 0.15 0.18 0.26 0.40 0.54 0.86 1.16 1.21 1.15 0.93 0.76 0.67 0.54 0.41 0.22 0.16 0.10 0.07 0.02 0.05 0.05 0.04 0.08 0.16 0.14 0.16 0.13 0.13 0.19 0.24 0.34
0.10 0.08 0.06 0.07 0.05 0.02 0.00 0.00 0.01 0.04 0.06 0.05 0.04 0.03 0.03 0.11 0.28 0.48 0.77 1.09 1.36 1.37 1.08 0.95 0.78 0.55 0.45 0.25 0.14 0.11 0.04 0.05 0.05 0.08 0.08 0.09 0.12 0.09 0.12 0.12 0.11 0.22 0.20
0.07 0.05 0.04 0.03 0.01 0.01 0.00 0.00 0.03 0.04 0.01 0.01 0.01 0.01 0.01 0.02 0.04 0.08 0.20 0.38 0.63 0.99 1.28 1.16 1.07 0.98 0.82 0.66 0.49 0.34 0.26 0.19 0.13 0.16 0.13 0.20 0.19 0.15 0.15 0.14 0.22 0.20 0.10
0.04 0.02 0.02 0.01 0.01 0.01 0.01 0.01 0.02 0.00 0.00 0.00 0.00 0.01 0.01 0.01 0.02 0.01 0.02 0.04 0.10 0.19 0.38 0.62 0.78 0.88 0.91 0.87 0.78 0.68 0.57 0.46 0.35 0.38 0.41 0.36 0.21 0.13 0.13 0.15 0.11 0.05 0.02
0.01 0.01 0.00 0.00 0.01 0.01 0.01 0.01 0.00 0.00 0.00 0.00 0.00 0.00 0.00 0.01 0.00 0.01 0.02 0.02 0.04 0.05 0.08 0.12 0.18 0.27 0.31 0.36 0.41 0.45 0.48 0.48 0.45 0.45 0.40 0.32 0.25 0.20 0.18 0.14 0.13 0.11 0.09
0.01 0.01 0.00 0.01 0.01 0.01 0.01 0.01 0.01 0.00 0.00 0.00 0.00 0.00 0.00 0.00 0.01 0.02 0.03 0.04 0.06 0.04 0.04 0.07 0.07 0.08 0.12 0.21 0.20 0.19 0.19 0.21 0.25 0.29 0.31 0.32 0.31 0.28 0.27 0.25 0.24 0.21 0.17
0.01 0.00 0.01 0.01 0.01 0.01 0.00 0.00 0.00 0.00 0.00 0.00 0.00 0.00 0.00 0.00 0.00 0.00 0.02 0.03 0.05 0.03 0.03 0.04 0.04 0.07 0.07 0.06 0.06 0.06 0.07 0.07 0.08 0.07 0.11 0.13 0.15 0.15 0.15 0.15 0.14 0.13 0.12

GFSMW_prec_precacc12_108.txt.gz
Total_Precipitation_Accumulation
0.00 0.00 0.00 0.00 0.00 0.00 0.00 0.00 0.00 0.00 0.00 0.00 0.00 0.00 0.00 0.01 0.01 0.01 0.05 0.02 0.08 0.04 0.01 0.01 0.01 0.01 0.01 0.01 0.01 0.01 0.01 0.02 0.02 0.03 0.03 0.03 0.07 0.15 0.24 0.39 0.43 0.66 0.66
0.00 0.00 0.00 0.00 0.00 0.00 0.00 0.00 0.00 0.00 0.00 0.00 0.00 0.00 0.00 0.00 0.07 0.05 0.03 0.05 0.06 0.15 0.08 0.06 0.05 0.06 0.04 0.01 0.02 0.01 0.01 0.02 0.02 0.02 0.02 0.02 0.05 0.08 0.16 0.22 0.30 0.39 0.51
0.00 0.00 0.00 0.00 0.00 0.00 0.00 0.00 0.00 0.00 0.00 0.00 0.00 0.00 0.02 0.05 0.08 0.02 0.01 0.08 0.19 0.20 0.13 0.06 0.10 0.27 0.44 0.35 0.08 0.02 0.02 0.01 0.02 0.02 0.02 0.01 0.01 0.04 0.06 0.14 0.20 0.30 0.33
0.00 0.00 0.00 0.00 0.00 0.00 0.00 0.00 0.00 0.00 0.00 0.00 0.00 0.00 0.00 0.00 0.00 0.00 0.02 0.09 0.42 0.64 0.54 0.31 0.26 0.27 0.24 0.22 0.21 0.10 0.05 0.04 0.03 0.05 0.04 0.02 0.03 0.02 0.03 0.06 0.13 0.18 0.20
0.00 0.00 0.00 0.00 0.00 0.00 0.00 0.00 0.00 0.00 0.00 0.00 0.00 0.00 0.00 0.00 0.00 0.00 0.02 0.04 0.20 0.24 0.46 0.49 0.38 0.36 0.28 0.22 0.20 0.10 0.05 0.06 0.05 0.05 0.04 0.04 0.04 0.05 0.03 0.01 0.07 0.17 0.13
0.00 0.00 0.00 0.00 0.00 0.00 0.00 0.00 0.00 0.00 0.00 0.00 0.00 0.01 0.01 0.00 0.01 0.00 0.01 0.05 0.09 0.14 0.15 0.27 0.18 0.18 0.31 0.31 0.42 0.44 0.24 0.14 0.11 0.08 0.09 0.07 0.04 0.03 0.04 0.04 0.04 0.10 0.14
0.00 0.00 0.00 0.00 0.00 0.00 0.00 0.00 0.00 0.00 0.00 0.01 0.01 0.01 0.01 0.01 0.01 0.02 0.05 0.13 0.25 0.30 0.29 0.21 0.11 0.07 0.06 0.08 0.10 0.24 0.35 0.27 0.13 0.08 0.08 0.09 0.09 0.10 0.07 0.13 0.12 0.13 0.14
0.00 0.00 0.00 0.00 0.00 0.00 0.00 0.01 0.01 0.01 0.02 0.04 0.05 0.05 0.05 0.05 0.04 0.06 0.15 0.14 0.10 0.11 0.29 0.31 0.18 0.14 0.14 0.22 0.29 0.29 0.22 0.16 0.28 0.17 0.11 0.09 0.06 0.11 0.10 0.09 0.13 0.18 0.17
0.00 0.00 0.00 0.01 0.01 0.01 0.01 0.01 0.01 0.01 0.06 0.10 0.10 0.11 0.14 0.18 0.20 0.15 0.28 0.32 0.23 0.19 0.20 0.11 0.23 0.30 0.30 0.23 0.23 0.14 0.11 0.07 0.09 0.13 0.18 0.17 0.06 0.04 0.05 0.11 0.13 0.14 0.16
0.00 0.00 0.00 0.01 0.02 0.04 0.03 0.03 0.03 0.05 0.08 0.16 0.19 0.18 0.19 0.24 0.29 0.29 0.39 0.38 0.36 0.30 0.27 0.18 0.20 0.22 0.34 0.39 0.22 0.10 0.11 0.13 0.15 0.19 0.23 0.17 0.08 0.05 0.03 0.05 0.08 0.11 0.14
0.00 0.00 0.00 0.00 0.00 0.01 0.05 0.04 0.04 0.11 0.17 0.24 0.30 0.25 0.24 0.26 0.24 0.27 0.35 0.44 0.39 0.41 0.32 0.29 0.22 0.20 0.25 0.45 0.47 0.29 0.33 0.30 0.23 0.21 0.19 0.15 0.12 0.09 0.07 0.09 0.12 0.09 0.11
0.00 0.00 0.00 0.00 0.00 0.00 0.03 0.03 0.03 0.14 0.24 0.18 0.28 0.26 0.33 0.36 0.31 0.33 0.43 0.39 0.34 0.44 0.49 0.31 0.19 0.18 0.16 0.27 0.63 0.60 0.45 0.32 0.37 0.44 0.34 0.25 0.19 0.11 0.09 0.16 0.17 0.14 0.10
0.00 0.00 0.00 0.00 0.00 0.00 0.03 0.06 0.09 0.13 0.17 0.16 0.25 0.18 0.17 0.35 0.41 0.41 0.41 0.40 0.27 0.27 0.45 0.48 0.41 0.31 0.15 0.08 0.11 0.35 0.43 0.20 0.13 0.36 0.53 0.28 0.20 0.12 0.13 0.18 0.19 0.18 0.15
0.00 0.00 0.00 0.00 0.00 0.00 0.02 0.06 0.17 0.24 0.41 0.36 0.26 0.34 0.38 0.45 0.47 0.49 0.49 0.42 0.35 0.15 0.18 0.31 0.35 0.35 0.20 0.09 0.05 0.04 0.13 0.31 0.12 0.11 0.17 0.17 0.18 0.13 0.14 0.16 0.18 0.21 0.24
0.00 0.00 0.00 0.00 0.00 0.00 0.00 0.01 0.04 0.16 0.32 0.55 0.52 0.34 0.43 0.60 0.86 1.27 1.22 0.68 0.55 0.37 0.28 0.20 0.18 0.25 0.15 0.10 0.06 0.03 0.06 0.13 0.20 0.09 0.08 0.11 0.15 0.20 0.25 0.23 0.24 0.27 0.27
0.01 0.00 0.00 0.00 0.00 0.00 0.01 0.01 0.02 0.03 0.11 0.21 0.22 0.26 0.20 0.31 0.52 0.97 1.53 1.12 0.73 0.75 0.42 0.46 0.24 0.16 0.09 0.11 0.11 0.08 0.05 0.06 0.09 0.21 0.14 0.18 0.25 0.30 0.35 0.45 0.47 0.46 0.38
0.01 0.01 0.01 0.01 0.01 0.01 0.02 0.03 0.08 0.05 0.03 0.08 0.19 0.23 0.41 0.41 0.46 0.81 1.38 1.67 1.32 0.95 0.91 0.52 0.32 0.16 0.12 0.17 0.15 0.08 0.03 0.03 0.04 0.05 0.07 0.10 0.28 0.43 0.40 0.50 0.55 0.65 0.72
0.05 0.03 0.02 0.02 0.03 0.02 0.01 0.02 0.03 0.04 0.05 0.06 0.13 0.16 0.23 0.36 0.57 0.70 0.93 1.01 1.17 1.20 1.03 0.64 0.46 0.28 0.14 0.15 0.12 0.14 0.03 0.03 0.04 0.03 0.03 0.05 0.12 0.37 0.47 0.47 0.59 0.70 0.77
0.14 0.09 0.06 0.07 0.07 0.05 0.03 0.02 0.01 0.02 0.04 0.09 0.13 0.17 0.21 0.21 0.36 0.69 0.78 0.90 0.78 0.81 0.96 0.88 0.58 0.45 0.33 0.27 0.21 0.15 0.03 0.02 0.03 0.05 0.06 0.06 0.02 0.08 0.22 0.27 0.34 0.48 0.69
0.12 0.10 0.12 0.13 0.12 0.09 0.04 0.01 0.00 0.00 0.02 0.07 0.15 0.18 0.15 0.18 0.35 0.63 0.90 1.08 1.09 0.94 0.83 0.81 0.78 0.76 0.61 0.55 0.39 0.29 0.12 0.05 0.04 0.03 0.06 0.10 0.08 0.10 0.10 0.12 0.17 0.20 0.30
0.12 0.13 0.12 0.13 0.10 0.05 0.02 0.01 0.00 0.03 0.04 0.03 0.02 0.01 0.02 0.05 0.16 0.35 0.61 0.97 1.26 1.34 1.12 1.02 0.93 0.79 0.79 0.75 0.66 0.46 0.26 0.16 0.09 0.05 0.05 0.06 0.09 0.08 0.11 0.11 0.10 0.20 0.18
0.12 0.09 0.07 0.05 0.02 0.01 0.00 0.00 0.02 0.03 0.01 0.00 0.00 0.00 0.00 0.01 0.02 0.02 0.12 0.29 0.53 0.90 1.21 1.15 1.14 1.12 1.05 1.01 0.88 0.73 0.56 0.36 0.21 0.16 0.08 0.15 0.14 0.12 0.13 0.14 0.22 0.20 0.10
0.07 0.03 0.01 0.00 0.00 0.00 0.00 0.01 0.01 0.00 0.00 0.00 0.00 0.00 0.00 0.00 0.00 0.00 0.00 0.01 0.04 0.11 0.27 0.50 0.69 0.83 0.93 0.97 0.96 0.90 0.79 0.65 0.50 0.48 0.45 0.32 0.16 0.12 0.15 0.18 0.14 0.07 0.04
0.01 0.00 0.00 0.00 0.00 0.00 0.00 0.01 0.00 0.00 0.00 0.00 0.00 0.00 0.00 0.00 0.00 0.00 0.00 0.00 0.01 0.01 0.03 0.06 0.12 0.22 0.29 0.36 0.44 0.49 0.54 0.58 0.56 0.56 0.54 0.48 0.40 0.34 0.32 0.26 0.22 0.18 0.15
0.01 0.00 0.00 0.00 0.00 0.00 0.00 0.00 0.00 0.00 0.00 0.00 0.00 0.00 0.00 0.00 0.00 0.01 0.02 0.02 0.03 0.01 0.01 0.03 0.03 0.03 0.06 0.13 0.15 0.16 0.19 0.22 0.26 0.30 0.31 0.30 0.29 0.29 0.32 0.32 0.32 0.30 0.27
0.01 0.00 0.00 0.00 0.00 0.00 0.00 0.00 0.00 0.00 0.00 0.00 0.00 0.00 0.00 0.00 0.00 0.00 0.01 0.02 0.03 0.01 0.01 0.01 0.01 0.02 0.02 0.01 0.01 0.02 0.03 0.05 0.07 0.08 0.11 0.14 0.15 0.15 0.16 0.16 0.17 0.17 0.18

GFSMW_prec_precacc12_114.txt.gz
Total_Precipitation_Accumulation
0.00 0.00 0.00 0.00 0.00 0.00 0.00 0.00 0.00 0.00 0.00 0.00 0.00 0.00 0.00 0.00 0.00 0.00 0.00 0.01 0.18 0.13 0.01 0.02 0.05 0.13 0.16 0.10 0.23 0.33 0.23 0.13 0.07 0.09 0.08 0.02 0.04 0.06 0.03 0.02 0.02 0.02 0.19
0.00 0.00 0.00 0.00 0.00 0.00 0.00 0.00 0.00 0.00 0.00 0.00 0.00 0.00 0.00 0.00 0.00 0.00 0.00 0.00 0.05 0.16 0.10 0.07 0.07 0.11 0.22 0.33 0.30 0.54 0.60 0.39 0.32 0.28 0.13 0.06 0.03 0.02 0.03 0.02 0.02 0.06 0.24
0.00 0.00 0.00 0.00 0.00 0.00 0.00 0.00 0.00 0.00 0.00 0.00 0.00 0.00 0.00 0.00 0.00 0.00 0.00 0.00 0.02 0.05 0.08 0.08 0.15 0.35 0.75 0.91 1.01 1.11 1.12 0.90 0.78 0.68 0.60 0.30 0.10 0.05 0.01 0.03 0.02 0.02 0.12
0.01 0.00 0.00 0.00 0.00 0.00 0.00 0.00 0.00 0.00 0.00 0.00 0.00 0.00 0.00 0.00 0.00 0.00 0.00 0.00 0.02 0.08 0.08 0.09 0.18 0.23 0.39 0.48 0.62 0.77 0.88 1.04 1.14 1.27 1.29 0.89 0.31 0.10 0.02 0.01 0.02 0.02 0.04
0.04 0.00 0.00 0.00 0.00 0.00 0.00 0.00 0.00 0.00 0.00 0.00 0.00 0.00 0.00 0.00 0.00 0.00 0.00 0.01 0.01 0.04 0.09 0.13 0.13 0.26 0.32 0.26 0.23 0.18 0.15 0.13 0.23 0.22 0.20 0.32 0.23 0.10 0.04 0.00 0.02 0.04 0.01
0.03 0.00 0.00 0.00 0.00 0.00 0.00 0.00 0.00 0.00 0.00 0.00 0.00 0.00 0.00 0.00 0.00 0.00 0.00 0.03 0.06 0.09 0.16 0.36 0.25 0.27 0.43 0.39 0.46 0.54 0.38 0.23 0.12 0.09 0.04 0.03 0.03 0.03 0.04 0.03 0.02 0.01 0.01
0.01 0.00 0.00 0.00 0.00 0.00 0.00 0.00 0.00 0.00 0.00 0.00 0.00 0.00 0.00 0.00 0.00 0.00 0.02 0.09 0.22 0.28 0.30 0.42 0.35 0.27 0.33 0.33 0.32 0.48 0.73 0.78 0.40 0.24 0.17 0.11 0.08 0.09 0.11 0.15 0.10 0.02 0.00
0.01 0.00 0.00 0.00 0.00 0.00 0.00 0.00 0.00 0.00 0.00 0.00 0.00 0.00 0.00 0.01 0.01 0.01 0.05 0.07 0.07 0.08 0.26 0.61 0.57 0.42 0.33 0.35 0.51 0.58 0.61 0.81 0.94 0.42 0.24 0.16 0.11 0.15 0.12 0.12 0.15 0.06 0.03
0.03 0.01 0.01 0.00 0.00 0.00 0.00 0.00 0.00 0.00 0.00 0.00 0.00 0.01 0.03 0.06 0.06 0.06 0.11 0.08 0.09 0.08 0.10 0.14 0.30 0.30 0.30 0.24 0.34 0.40 0.35 0.34 0.54 0.47 0.30 0.32 0.21 0.20 0.15 0.12 0.12 0.09 0.05
0.09 0.03 0.01 0.00 0.00 0.00 0.00 0.00 0.00 0.00 0.00 0.00 0.01 0.02 0.06 0.17 0.23 0.20 0.16 0.10 0.07 0.12 0.13 0.10 0.25 0.28 0.35 0.33 0.19 0.22 0.28 0.29 0.45 0.68 0.60 0.36 0.19 0.21 0.22 0.20 0.20 0.15 0.11
0.01 0.01 0.01 0.00 0.00 0.00 0.00 0.00 0.00 0.00 0.00 0.00 0.02 0.04 0.05 0.15 0.17 0.19 0.28 0.27 0.28 0.27 0.28 0.27 0.36 0.23 0.31 0.51 0.54 0.40 0.50 0.50 0.48 0.66 0.46 0.30 0.26 0.25 0.24 0.25 0.23 0.18 0.13
0.00 0.00 0.00 0.00 0.00 0.00 0.00 0.00 0.00 0.00 0.00 0.00 0.00 0.02 0.06 0.08 0.12 0.21 0.29 0.27 0.25 0.39 0.51 0.40 0.42 0.39 0.37 0.48 0.81 0.78 0.59 0.51 0.64 0.82 0.72 0.45 0.40 0.31 0.28 0.22 0.16 0.14 0.15
0.00 0.00 0.00 0.00 0.00 0.00 0.00 0.00 0.00 0.01 0.01 0.01 0.01 0.02 0.05 0.09 0.11 0.13 0.19 0.22 0.22 0.27 0.51 0.58 0.61 0.66 0.48 0.38 0.33 0.58 0.72 0.48 0.46 0.62 0.78 0.64 0.46 0.40 0.47 0.43 0.24 0.13 0.11
0.00 0.00 0.00 0.00 0.00 0.00 0.00 0.00 0.00 0.03 0.14 0.22 0.15 0.09 0.12 0.13 0.18 0.19 0.27 0.29 0.29 0.16 0.24 0.45 0.54 0.80 0.83 0.78 0.60 0.55 0.45 0.58 0.43 0.34 0.31 0.43 0.43 0.27 0.27 0.29 0.34 0.34 0.24
0.00 0.00 0.00 0.00 0.00 0.00 0.00 0.00 0.00 0.01 0.02 0.10 0.25 0.25 0.23 0.33 0.49 0.75 0.83 0.52 0.50 0.36 0.28 0.24 0.28 0.59 0.95 0.58 0.44 0.33 0.53 0.55 0.56 0.32 0.23 0.22 0.32 0.24 0.20 0.25 0.19 0.18 0.20
0.00 0.00 0.00 0.00 0.00 0.00 0.00 0.00 0.00 0.01 0.02 0.03 0.04 0.10 0.09 0.11 0.19 0.32 0.53 0.51 0.56 0.70 0.49 0.54 0.36 0.26 0.48 0.69 0.46 0.44 0.36 0.52 0.47 0.37 0.21 0.17 0.09 0.07 0.12 0.17 0.29 0.29 0.25
0.00 0.01 0.01 0.01 0.02 0.02 0.02 0.01 0.01 0.01 0.02 0.04 0.04 0.05 0.15 0.20 0.21 0.17 0.18 0.31 0.37 0.49 0.78 0.59 0.48 0.37 0.32 0.65 0.49 0.53 0.66 0.53 0.33 0.23 0.20 0.08 0.06 0.11 0.07 0.15 0.20 0.30 0.33
0.04 0.03 0.03 0.04 0.05 0.05 0.04 0.03 0.02 0.01 0.03 0.06 0.08 0.08 0.13 0.22 0.26 0.26 0.20 0.17 0.29 0.47 0.67 0.65 0.56 0.41 0.39 0.40 0.66 0.67 0.66 0.60 0.40 0.30 0.14 0.09 0.05 0.08 0.17 0.22 0.20 0.18 0.23
0.12 0.09 0.07 0.09 0.10 0.10 0.08 0.06 0.05 0.03 0.02 0.05 0.10 0.14 0.15 0.15 0.12 0.13 0.13 0.15 0.13 0.25 0.65 0.81 0.62 0.54 0.51 0.60 0.57 0.61 0.53 0.73 0.59 0.35 0.26 0.19 0.14 0.17 0.16 0.13 0.16 0.14 0.24
0.10 0.09 0.13 0.15 0.17 0.18 0.15 0.11 0.09 0.05 0.05 0.04 0.09 0.11 0.08 0.11 0.12 0.15 0.17 0.22 0.26 0.32 0.36 0.62 0.79 0.84 0.77 0.80 0.75 0.77 0.60 0.46 0.56 0.43 0.27 0.26 0.22 0.20 0.16 0.09 0.09 0.11 0.12
0.13 0.14 0.16 0.22 0.21 0.14 0.10 0.08 0.03 0.02 0.01 0.01 0.00 0.00 0.00 0.01 0.03 0.04 0.10 0.20 0.31 0.41 0.47 0.56 0.70 0.72 0.84 0.95 1.01 0.89 0.80 0.78 0.54 0.45 0.42 0.30 0.23 0.23 0.24 0.20 0.14 0.14 0.07
0.14 0.13 0.14 0.13 0.07 0.03 0.01 0.00 0.00 0.00 0.00 0.00 0.00 0.00 0.00 0.00 0.00 0.00 0.01 0.06 0.14 0.23 0.40 0.53 0.67 0.80 0.85 0.91 0.93 0.98 1.00 0.91 0.78 0.74 0.53 0.47 0.37 0.27 0.22 0.21 0.25 0.18 0.09
0.12 0.07 0.03 0.01 0.00 0.00 0.00 0.00 0.00 0.00 0.00 0.00 0.00 0.00 0.00 0.00 0.00 0.00 0.00 0.00 0.02 0.06 0.14 0.23 0.36 0.52 0.64 0.72 0.79 0.84 0.83 0.80 0.78 0.85 0.89 0.76 0.55 0.44 0.36 0.29 0.22 0.13 0.05
0.01 0.00 0.00 0.00 0.00 0.00 0.00 0.00 0.00 0.00 0.00 0.00 0.00 0.00 0.00 0.00 0.00 0.00 0.00 0.00 0.00 0.00 0.02 0.04 0.08 0.13 0.19 0.25 0.33 0.41 0.49 0.55 0.57 0.59 0.62 0.63 0.62 0.64 0.65 0.56 0.43 0.31 0.23
0.00 0.00 0.00 0.00 0.00 0.00 0.00 0.00 0.00 0.00 0.00 0.00 0.00 0.00 0.00 0.00 0.00 0.01 0.01 0.01 0.01 0.01 0.01 0.03 0.02 0.02 0.04 0.07 0.09 0.12 0.14 0.18 0.23 0.28 0.30 0.30 0.32 0.35 0.41 0.46 0.50 0.51 0.47
0.00 0.00 0.00 0.00 0.00 0.00 0.00 0.00 0.00 0.00 0.00 0.00 0.00 0.00 0.00 0.00 0.00 0.00 0.01 0.01 0.00 0.00 0.00 0.00 0.01 0.01 0.00 0.00 0.00 0.01 0.02 0.03 0.04 0.06 0.08 0.11 0.14 0.17 0.20 0.23 0.26 0.29 0.32

GFSMW_prec_precacc12_117.txt.gz
Total_Precipitation_Accumulation
0.00 0.00 0.00 0.00 0.00 0.00 0.00 0.00 0.00 0.00 0.00 0.00 0.00 0.00 0.00 0.00 0.00 0.00 0.00 0.01 0.18 0.12 0.01 0.03 0.08 0.22 0.25 0.21 0.39 0.62 0.55 0.49 0.44 0.33 0.29 0.21 0.16 0.18 0.12 0.07 0.05 0.02 0.00
0.00 0.00 0.00 0.00 0.00 0.00 0.00 0.00 0.00 0.00 0.00 0.00 0.00 0.00 0.00 0.00 0.00 0.00 0.00 0.00 0.04 0.16 0.09 0.06 0.06 0.11 0.22 0.34 0.31 0.62 0.69 0.52 0.56 0.73 0.54 0.35 0.20 0.20 0.26 0.24 0.15 0.06 0.02
0.00 0.00 0.00 0.00 0.00 0.00 0.00 0.00 0.00 0.00 0.00 0.00 0.00 0.00 0.00 0.00 0.00 0.00 0.00 0.00 0.01 0.04 0.07 0.08 0.15 0.35 0.74 0.91 1.01 1.12 1.19 0.94 0.84 0.81 0.87 0.76 0.65 0.63 0.54 0.52 0.34 0.10 0.03
0.01 0.00 0.00 0.00 0.00 0.00 0.00 0.00 0.00 0.00 0.00 0.00 0.00 0.00 0.00 0.00 0.00 0.00 0.00 0.00 0.00 0.05 0.07 0.08 0.17 0.22 0.37 0.45 0.62 0.77 0.90 1.09 1.16 1.29 1.35 1.14 0.94 0.67 0.46 0.44 0.43 0.15 0.03
0.08 0.05 0.02 0.01 0.01 0.01 0.00 0.00 0.00 0.00 0.00 0.00 0.00 0.00 0.00 0.00 0.00 0.00 0.00 0.00 0.00 0.03 0.08 0.11 0.12 0.15 0.22 0.19 0.19 0.17 0.15 0.14 0.24 0.22 0.22 0.34 0.29 0.20 0.16 0.09 0.05 0.04 0.00
0.04 0.05 0.07 0.05 0.03 0.01 0.00 0.00 0.00 0.00 0.00 0.00 0.00 0.00 0.00 0.00 0.00 0.00 0.00 0.00 0.03 0.07 0.14 0.24 0.21 0.21 0.21 0.18 0.24 0.33 0.32 0.23 0.13 0.10 0.06 0.05 0.04 0.02 0.01 0.01 0.01 0.00 0.00
0.12 0.05 0.01 0.01 0.02 0.02 0.00 0.00 0.00 0.00 0.00 0.00 0.00 0.00 0.00 0.00 0.00 0.00 0.00 0.03 0.17 0.24 0.28 0.37 0.34 0.26 0.30 0.32 0.31 0.42 0.65 0.77 0.42 0.27 0.20 0.12 0.07 0.05 0.07 0.07 0.04 0.01 0.00
0.32 0.18 0.05 0.01 0.00 0.00 0.00 0.00 0.00 0.00 0.00 0.00 0.00 0.00 0.00 0.01 0.00 0.00 0.00 0.01 0.06 0.07 0.24 0.56 0.51 0.37 0.29 0.34 0.50 0.57 0.60 0.82 0.96 0.44 0.27 0.18 0.12 0.13 0.09 0.09 0.12 0.03 0.01
0.38 0.32 0.17 0.04 0.00 0.00 0.00 0.00 0.00 0.00 0.00 0.00 0.00 0.00 0.01 0.03 0.03 0.03 0.02 0.01 0.05 0.06 0.07 0.11 0.20 0.23 0.23 0.20 0.30 0.38 0.34 0.36 0.57 0.50 0.31 0.32 0.22 0.22 0.16 0.12 0.11 0.08 0.01
0.40 0.27 0.17 0.08 0.03 0.00 0.00 0.00 0.00 0.00 0.00 0.00 0.00 0.00 0.01 0.03 0.04 0.07 0.09 0.06 0.04 0.09 0.10 0.06 0.19 0.24 0.24 0.17 0.13 0.15 0.21 0.26 0.46 0.71 0.63 0.38 0.18 0.22 0.30 0.27 0.27 0.21 0.08
0.11 0.11 0.10 0.07 0.04 0.03 0.02 0.01 0.00 0.00 0.00 0.00 0.00 0.00 0.01 0.04 0.05 0.07 0.16 0.19 0.23 0.21 0.21 0.21 0.33 0.22 0.27 0.28 0.23 0.15 0.31 0.44 0.50 0.67 0.49 0.30 0.30 0.26 0.34 0.42 0.38 0.27 0.20
0.04 0.03 0.02 0.01 0.00 0.00 0.00 0.00 0.00 0.00 0.00 0.00 0.00 0.00 0.00 0.01 0.02 0.11 0.17 0.20 0.20 0.29 0.41 0.40 0.41 0.38 0.31 0.32 0.27 0.23 0.20 0.39 0.64 0.85 0.80 0.48 0.43 0.40 0.37 0.37 0.31 0.22 0.24
0.00 0.00 0.00 0.00 0.00 0.00 0.00 0.00 0.00 0.00 0.00 0.00 0.00 0.00 0.00 0.00 0.00 0.01 0.06 0.10 0.14 0.22 0.44 0.54 0.60 0.65 0.46 0.34 0.27 0.29 0.48 0.43 0.45 0.63 0.81 0.67 0.51 0.45 0.52 0.49 0.31 0.23 0.16
0.00 0.00 0.00 0.00 0.00 0.00 0.00 0.00 0.00 0.00 0.00 0.00 0.00 0.01 0.01 0.01 0.01 0.02 0.04 0.05 0.06 0.08 0.18 0.40 0.53 0.79 0.81 0.74 0.57 0.53 0.42 0.59 0.46 0.38 0.33 0.43 0.47 0.30 0.30 0.33 0.39 0.38 0.27
0.00 0.00 0.00 0.00 0.00 0.00 0.00 0.00 0.00 0.00 0.00 0.00 0.00 0.02 0.07 0.07 0.11 0.12 0.25 0.26 0.17 0.18 0.20 0.20 0.27 0.58 0.95 0.58 0.45 0.33 0.53 0.55 0.57 0.54 0.53 0.38 0.45 0.42 0.29 0.29 0.19 0.19 0.27
0.00 0.00 0.00 0.00 0.00 0.01 0.01 0.00 0.01 0.01 0.00 0.00 0.02 0.01 0.01 0.03 0.06 0.09 0.17 0.26 0.28 0.43 0.41 0.49 0.33 0.26 0.48 0.70 0.47 0.46 0.38 0.56 0.63 0.57 0.43 0.64 0.79 0.40 0.26 0.22 0.24 0.23 0.20
0.00 0.01 0.01 0.01 0.02 0.03 0.03 0.03 0.03 0.01 0.01 0.01 0.03 0.02 0.02 0.03 0.10 0.11 0.08 0.12 0.22 0.22 0.43 0.44 0.45 0.37 0.34 0.68 0.51 0.60 0.73 0.58 0.42 0.53 0.52 0.35 0.57 0.66 0.35 0.14 0.16 0.27 0.34
0.01 0.02 0.03 0.04 0.04 0.05 0.05 0.05 0.04 0.02 0.02 0.03 0.04 0.05 0.06 0.08 0.13 0.16 0.15 0.13 0.11 0.12 0.17 0.35 0.45 0.39 0.43 0.44 0.72 0.74 0.73 0.67 0.47 0.40 0.44 0.45 0.35 0.35 0.25 0.22 0.17 0.12 0.26
0.04 0.06 0.05 0.07 0.09 0.10 0.09 0.08 0.06 0.06 0.02 0.03 0.07 0.10 0.12 0.13 0.11 0.12 0.12 0.13 0.08 0.08 0.19 0.21 0.21 0.36 0.49 0.62 0.65 0.72 0.65 0.81 0.68 0.48 0.47 0.39 0.38 0.33 0.34 0.20 0.38 0.31 0.21
0.06 0.06 0.09 0.11 0.14 0.18 0.15 0.12 0.10 0.05 0.04 0.02 0.05 0.07 0.06 0.09 0.11 0.12 0.12 0.10 0.10 0.16 0.16 0.20 0.32 0.48 0.60 0.73 0.77 0.86 0.72 0.58 0.71 0.63 0.54 0.63 0.53 0.46 0.37 0.21 0.21 0.43 0.36
0.09 0.10 0.13 0.19 0.20 0.14 0.10 0.08 0.03 0.01 0.00 0.00 0.00 0.00 0.00 0.01 0.02 0.02 0.03 0.06 0.08 0.09 0.11 0.14 0.23 0.35 0.53 0.77 0.94 0.86 0.82 0.86 0.65 0.59 0.64 0.61 0.59 0.57 0.54 0.39 0.30 0.33 0.34
0.11 0.11 0.12 0.13 0.07 0.03 0.01 0.00 0.00 0.00 0.00 0.00 0.00 0.00 0.00 0.00 0.00 0.00 0.00 0.01 0.02 0.04 0.08 0.12 0.19 0.30 0.43 0.59 0.71 0.84 0.91 0.85 0.77 0.77 0.65 0.67 0.62 0.55 0.50 0.50 0.46 0.32 0.26
0.11 0.07 0.03 0.01 0.00 0.00 0.00 0.00 0.00 0.00 0.00 0.00 0.00 0.00 0.00 0.00 0.00 0.00 0.00 0.00 0.00 0.00 0.03 0.06 0.11 0.17 0.25 0.34 0.44 0.52 0.60 0.64 0.66 0.74 0.80 0.73 0.58 0.52 0.54 0.54 0.48 0.37 0.27
0.01 0.00 0.00 0.00 0.00 0.00 0.00 0.00 0.00 0.00 0.00 0.00 0.00 0.00 0.00 0.00 0.00 0.00 0.00 0.00 0.00 0.00 0.01 0.01 0.02 0.05 0.09 0.13 0.20 0.25 0.30 0.37 0.41 0.44 0.47 0.49 0.51 0.55 0.60 0.58 0.52 0.46 0.45
0.00 0.00 0.00 0.00 0.00 0.00 0.00 0.00 0.00 0.00 0.00 0.00 0.00 0.00 0.00 0.00 0.00 0.01 0.02 0.01 0.00 0.00 0.01 0.03 0.02 0.01 0.02 0.03 0.04 0.07 0.09 0.12 0.16 0.20 0.21 0.21 0.24 0.27 0.32 0.37 0.44 0.49 0.50
0.00 0.00 0.00 0.00 0.00 0.00 0.00 0.00 0.00 0.00 0.00 0.00 0.00 0.00 0.00 0.00 0.00 0.00 0.00 0.01 0.00 0.00 0.00 0.00 0.01 0.00 0.00 0.00 0.00 0.00 0.00 0.02 0.03 0.04 0.06 0.08 0.10 0.13 0.16 0.19 0.22 0.25 0.30

GFSMW_prec_precacc12_123.txt.gz
Total_Precipitation_Accumulation
0.00 0.00 0.00 0.00 0.00 0.00 0.00 0.00 0.00 0.00 0.00 0.00 0.00 0.00 0.00 0.00 0.00 0.00 0.00 0.00 0.00 0.00 0.01 0.01 0.06 0.21 0.25 0.30 0.64 0.91 0.91 0.83 1.15 1.67 1.62 1.00 0.54 0.38 0.27 0.24 0.27 0.25 0.23
0.00 0.00 0.00 0.00 0.00 0.00 0.00 0.00 0.00 0.00 0.00 0.00 0.00 0.00 0.00 0.00 0.00 0.00 0.00 0.00 0.00 0.00 0.00 0.00 0.01 0.02 0.08 0.23 0.28 0.50 0.66 0.64 0.82 1.09 1.13 0.93 0.53 0.33 0.32 0.37 0.38 0.28 0.23
0.00 0.00 0.00 0.00 0.00 0.00 0.00 0.00 0.00 0.00 0.00 0.00 0.00 0.00 0.00 0.00 0.00 0.00 0.00 0.00 0.00 0.00 0.00 0.00 0.01 0.02 0.05 0.07 0.18 0.25 0.45 0.50 0.67 0.88 1.05 0.89 0.72 0.68 0.59 0.55 0.43 0.35 0.26
0.00 0.00 0.00 0.00 0.01 0.01 0.00 0.00 0.00 0.00 0.00 0.00 0.00 0.00 0.00 0.00 0.00 0.00 0.00 0.00 0.00 0.00 0.00 0.00 0.00 0.01 0.03 0.05 0.07 0.13 0.23 0.41 0.87 1.11 1.34 1.20 0.97 0.68 0.46 0.45 0.47 0.35 0.18
0.08 0.05 0.03 0.02 0.02 0.01 0.01 0.01 0.02 0.03 0.04 0.04 0.02 0.01 0.00 0.00 0.00 0.00 0.00 0.00 0.00 0.00 0.00 0.00 0.00 0.00 0.02 0.03 0.05 0.06 0.07 0.06 0.05 0.06 0.17 0.33 0.31 0.22 0.17 0.10 0.04 0.03 0.01
0.08 0.09 0.10 0.07 0.05 0.02 0.01 0.00 0.01 0.01 0.02 0.03 0.05 0.04 0.02 0.00 0.00 0.00 0.00 0.00 0.00 0.00 0.00 0.00 0.00 0.00 0.00 0.03 0.06 0.06 0.07 0.06 0.05 0.04 0.04 0.05 0.04 0.02 0.01 0.01 0.01 0.00 0.00
0.20 0.13 0.09 0.07 0.08 0.09 0.08 0.07 0.05 0.02 0.01 0.00 0.01 0.02 0.01 0.00 0.00 0.00 0.00 0.00 0.00 0.00 0.00 0.00 0.00 0.00 0.00 0.02 0.10 0.13 0.14 0.15 0.14 0.11 0.09 0.09 0.07 0.06 0.06 0.05 0.03 0.01 0.00
0.44 0.30 0.18 0.11 0.07 0.06 0.04 0.04 0.05 0.06 0.04 0.03 0.02 0.01 0.00 0.00 0.00 0.00 0.00 0.00 0.00 0.00 0.00 0.00 0.00 0.00 0.00 0.01 0.04 0.09 0.17 0.26 0.26 0.16 0.16 0.13 0.12 0.13 0.11 0.09 0.09 0.04 0.01
0.43 0.38 0.30 0.17 0.09 0.05 0.03 0.02 0.01 0.00 0.00 0.00 0.00 0.00 0.00 0.00 0.00 0.00 0.00 0.00 0.00 0.00 0.00 0.00 0.00 0.00 0.00 0.00 0.02 0.07 0.10 0.16 0.18 0.11 0.13 0.15 0.15 0.16 0.14 0.13 0.13 0.11 0.03
0.40 0.28 0.18 0.13 0.08 0.05 0.03 0.01 0.00 0.00 0.00 0.00 0.00 0.00 0.00 0.00 0.00 0.00 0.00 0.00 0.00 0.00 0.01 0.00 0.00 0.00 0.00 0.01 0.02 0.06 0.13 0.15 0.22 0.29 0.20 0.19 0.09 0.10 0.19 0.19 0.25 0.23 0.11
0.11 0.12 0.10 0.09 0.08 0.06 0.04 0.03 0.02 0.02 0.01 0.00 0.00 0.00 0.00 0.00 0.00 0.00 0.00 0.00 0.01 0.01 0.01 0.01 0.01 0.02 0.03 0.05 0.07 0.10 0.17 0.18 0.15 0.32 0.19 0.09 0.15 0.12 0.24 0.34 0.31 0.32 0.30
0.04 0.03 0.02 0.01 0.01 0.01 0.01 0.01 0.00 0.00 0.00 0.00 0.00 0.00 0.00 0.00 0.00 0.00 0.00 0.00 0.00 0.00 0.00 0.00 0.00 0.04 0.08 0.12 0.09 0.13 0.14 0.13 0.09 0.16 0.31 0.13 0.14 0.22 0.27 0.36 0.34 0.30 0.35
0.00 0.00 0.00 0.00 0.00 0.00 0.00 0.01 0.00 0.01 0.00 0.00 0.00 0.00 0.00 0.00 0.00 0.00 0.00 0.00 0.00 0.00 0.00 0.00 0.00 0.02 0.05 0.09 0.11 0.18 0.28 0.23 0.12 0.17 0.24 0.22 0.26 0.32 0.45 0.45 0.32 0.27 0.26
0.00 0.00 0.00 0.00 0.00 0.00 0.00 0.00 0.00 0.00 0.00 0.00 0.00 0.00 0.00 0.00 0.00 0.00 0.00 0.00 0.00 0.00 0.00 0.00 0.00 0.00 0.01 0.13 0.34 0.39 0.25 0.25 0.25 0.28 0.32 0.40 0.43 0.22 0.18 0.28 0.38 0.42 0.32
0.00 0.00 0.00 0.00 0.00 0.00 0.00 0.00 0.00 0.00 0.00 0.00 0.00 0.00 0.00 0.00 0.00 0.00 0.00 0.00 0.00 0.00 0.00 0.00 0.01 0.03 0.08 0.17 0.19 0.21 0.42 0.37 0.33 0.46 0.49 0.37 0.47 0.40 0.26 0.28 0.21 0.24 0.36
0.00 0.00 0.00 0.00 0.01 0.01 0.01 0.01 0.01 0.01 0.00 0.00 0.00 0.00 0.00 0.00 0.00 0.00 0.00 0.00 0.00 0.00 0.00 0.01 0.01 0.01 0.04 0.18 0.19 0.16 0.23 0.39 0.55 0.39 0.33 0.58 0.74 0.36 0.25 0.30 0.33 0.35 0.32
0.00 0.00 0.01 0.01 0.02 0.03 0.03 0.02 0.03 0.01 0.00 0.00 0.00 0.00 0.01 0.01 0.01 0.01 0.01 0.01 0.01 0.00 0.01 0.01 0.02 0.03 0.04 0.09 0.14 0.24 0.56 0.49 0.39 0.51 0.42 0.31 0.55 0.65 0.53 0.39 0.41 0.50 0.49
0.01 0.01 0.02 0.02 0.03 0.03 0.04 0.04 0.04 0.03 0.00 0.01 0.01 0.01 0.02 0.02 0.03 0.02 0.02 0.03 0.03 0.02 0.04 0.05 0.07 0.06 0.11 0.12 0.15 0.31 0.55 0.62 0.45 0.43 0.49 0.50 0.49 0.64 0.53 0.44 0.39 0.41 0.51
0.01 0.02 0.03 0.03 0.03 0.03 0.04 0.05 0.07 0.07 0.01 0.01 0.01 0.01 0.01 0.01 0.01 0.01 0.02 0.03 0.02 0.02 0.05 0.07 0.08 0.10 0.15 0.22 0.25 0.29 0.41 0.71 0.70 0.53 0.51 0.42 0.47 0.58 0.73 0.66 0.72 0.58 0.45
0.01 0.02 0.02 0.01 0.02 0.04 0.04 0.06 0.08 0.04 0.03 0.01 0.00 0.00 0.00 0.00 0.00 0.00 0.01 0.01 0.01 0.03 0.03 0.02 0.03 0.04 0.07 0.14 0.18 0.23 0.33 0.45 0.62 0.59 0.57 0.67 0.67 0.63 0.62 0.62 0.64 0.79 0.72
0.02 0.01 0.02 0.04 0.06 0.05 0.04 0.03 0.01 0.01 0.00 0.00 0.00 0.00 0.00 0.00 0.00 0.00 0.00 0.00 0.00 0.00 0.00 0.00 0.01 0.01 0.03 0.05 0.09 0.13 0.26 0.41 0.39 0.47 0.59 0.64 0.66 0.75 0.80 0.76 0.73 0.81 0.82
0.02 0.01 0.02 0.04 0.03 0.01 0.00 0.00 0.00 0.00 0.00 0.00 0.00 0.00 0.00 0.00 0.00 0.00 0.00 0.00 0.00 0.00 0.00 0.00 0.00 0.00 0.00 0.00 0.01 0.04 0.07 0.12 0.21 0.33 0.40 0.52 0.55 0.55 0.62 0.69 0.74 0.65 0.60
0.02 0.01 0.01 0.00 0.00 0.00 0.00 0.00 0.00 0.00 0.00 0.00 0.00 0.00 0.00 0.00 0.00 0.00 0.00 0.00 0.00 0.00 0.00 0.00 0.00 0.00 0.00 0.00 0.00 0.00 0.01 0.04 0.08 0.14 0.24 0.31 0.35 0.39 0.46 0.51 0.53 0.51 0.47
0.00 0.00 0.00 0.00 0.00 0.00 0.00 0.00 0.00 0.00 0.00 0.00 0.00 0.00 0.00 0.00 0.00 0.00 0.00 0.00 0.00 0.00 0.01 0.00 0.01 0.00 0.00 0.00 0.00 0.00 0.00 0.00 0.01 0.03 0.05 0.08 0.13 0.20 0.26 0.33 0.37 0.41 0.46
0.00 0.00 0.00 0.00 0.00 0.00 0.00 0.00 0.00 0.00 0.00 0.00 0.00 0.00 0.00 0.00 0.00 0.01 0.02 0.00 0.00 0.00 0.01 0.02 0.01 0.01 0.02 0.02 0.00 0.00 0.00 0.00 0.00 0.00 0.00 0.00 0.01 0.02 0.05 0.09 0.15 0.22 0.28
0.00 0.00 0.00 0.00 0.00 0.00 0.00 0.00 0.00 0.00 0.00 0.00 0.00 0.00 0.00 0.00 0.00 0.00 0.00 0.00 0.00 0.00 0.00 0.00 0.01 0.00 0.00 0.00 0.00 0.00 0.00 0.00 0.00 0.00 0.00 0.00 0.00 0.01 0.01 0.02 0.04 0.07 0.11